Wind_Speed
23 23 23 24 24 23 23 23 23 23 22 22 22 22 21 21 20 20 20 21 21 22 22 21 21 20 20 20 21 21 21 21 20 20 21 20 20 20 20 21 21 21 21 22
25 25 24 25 25 25 25 25 25 25 24 23 23 22 22 22 21 21 21 21 21 21 21 21 22 22 21 21 21 22 22 21 21 22 22 21 21 20 20 20 20 20 21 21
26 25 26 26 25 26 27 26 26 26 26 25 25 24 24 24 23 22 23 23 22 21 21 21 22 22 22 22 22 22 22 22 22 23 23 22 22 21 20 20 21 21 21 21
25 26 27 26 26 26 26 26 26 27 26 26 26 26 26 26 25 24 24 24 23 22 22 22 22 22 23 23 23 22 23 23 24 24 24 23 23 22 22 21 21 21 21 21
26 26 28 27 26 26 27 27 27 27 27 27 26 27 27 26 25 25 24 24 23 22 22 22 23 23 23 23 23 23 23 23 24 25 24 23 23 23 22 22 21 21 22 22
28 27 27 27 26 26 27 28 27 28 28 28 28 28 27 26 26 26 25 24 23 23 22 23 24 24 24 23 23 24 24 23 23 24 23 23 22 22 22 22 22 22 23 23
29 29 28 27 26 27 28 28 28 28 28 28 29 29 28 28 28 27 26 25 25 24 24 24 24 24 25 25 24 24 24 23 22 23 23 23 23 23 23 23 23 23 23 24
28 28 28 28 28 28 28 28 28 28 28 29 29 29 30 29 28 27 26 26 26 25 25 25 25 25 25 25 24 25 24 24 24 24 24 24 24 24 25 24 24 23 23 23
28 29 29 29 29 29 28 28 28 28 29 29 29 29 30 29 28 27 27 26 27 27 26 26 26 26 26 26 25 25 25 25 25 25 25 25 25 24 24 24 25 23 22 22
28 29 29 29 29 29 28 28 28 27 27 28 28 28 29 29 29 28 27 27 27 27 28 27 27 27 27 27 26 25 25 26 26 25 25 25 25 24 24 23 24 23 23 23
28 28 28 28 28 28 28 28 27 27 26 26 27 28 29 29 29 28 28 28 28 28 28 27 27 27 28 28 27 27 26 26 25 25 25 25 24 24 24 24 23 24 24 24
28 28 28 28 28 27 27 27 27 26 27 26 27 27 27 28 28 28 28 29 28 28 27 27 27 27 27 27 27 26 26 25 25 25 25 25 25 24 24 24 24 24 24 24
28 28 28 28 28 28 27 26 26 25 26 26 26 27 27 26 27 28 28 28 28 28 28 27 27 27 27 27 27 26 26 26 25 25 25 24 24 24 24 24 24 24 23 23
28 28 28 28 27 27 27 26 25 25 25 26 26 26 26 26 27 27 28 28 28 28 27 27 27 27 27 27 26 26 26 26 25 24 23 23 24 24 23 23 23 23 23 22
28 28 28 28 27 28 28 27 26 26 26 26 27 27 27 27 27 27 27 28 28 28 27 27 27 27 27 27 27 26 26 25 24 23 22 22 22 22 22 22 22 23 23 22
28 28 28 28 28 28 28 27 27 27 27 27 27 27 27 27 27 27 27 27 27 27 27 27 27 27 27 27 27 26 26 25 24 23 23 22 21 21 21 21 22 22 22 21
27 27 27 27 26 26 26 26 27 27 27 27 27 27 27 26 26 26 26 26 25 25 26 26 26 26 27 26 26 25 24 23 23 23 22 21 21 20 20 21 21 21 20 20
24 25 25 25 25 25 25 25 26 26 26 25 25 25 25 25 24 25 25 24 24 24 25 26 27 27 26 26 25 24 24 23 22 21 21 21 21 21 21 21 20 20 20 20
24 24 24 24 24 24 24 24 24 24 24 23 22 23 24 24 24 25 24 23 24 25 26 27 28 27 26 26 25 24 23 22 21 21 20 21 21 21 20 20 20 19 19 20
22 22 23 22 23 23 24 24 24 23 23 22 22 22 23 23 23 24 25 24 24 25 26 26 27 27 27 26 25 24 23 22 22 21 21 21 21 20 20 20 20 20 20 21
21 21 21 21 22 22 22 22 23 22 21 21 21 21 21 21 21 22 23 24 24 24 24 24 24 23 24 24 24 23 22 22 22 21 20 21 21 20 20 20 21 21 21 21
19 19 20 20 20 20 20 20 20 20 19 19 20 20 20 20 20 21 22 23 23 23 22 21 20 20 21 21 21 20 20 21 21 20 20 20 20 20 20 20 20 21 21 20
18 18 18 18 18 18 18 18 18 19 18 18 18 18 19 20 20 20 20 20 20 19 19 18 18 18 19 19 19 19 19 19 20 20 19 19 19 20 20 20 21 21 21 20
16 16 16 16 16 16 16 16 17 17 16 16 16 16 17 18 18 17 18 18 17 17 17 17 17 17 17 17 18 18 18 19 19 19 19 19 19 20 20 21 21 20 19 18
15 15 14 14 15 15 15 15 15 15 16 16 16 16 17 17 17 17 17 16 16 16 16 16 16 15 16 16 16 17 18 19 20 20 19 20 20 20 21 21 21 20 19 18
14 14 14 14 14 14 14 14 15 15 16 16 16 16 16 16 16 16 17 16 16 16 16 15 15 15 16 16 16 17 18 19 19 19 19 20 20 20 20 20 19 19 18 18
14 14 14 13 13 13 14 14 15 15 16 16 16 16 16 15 16 16 16 16 16 16 16 16 16 16 17 17 18 18 18 18 18 19 20 20 20 20 20 19 18 17 18 18
Wind_Direction
258 260 260 261 262 261 262 262 262 265 267 268 272 275 278 280 280 279 278 277 276 276 279 282 285 287 290 293 293 293 294 294 295 295 294 292 291 289 288 289 287 285 283 281
261 262 262 261 259 259 260 261 263 265 266 268 271 273 276 279 280 282 282 280 279 277 277 281 283 283 287 290 292 293 294 295 294 295 293 292 291 289 288 289 289 287 285 283
263 264 264 262 261 260 260 261 263 265 267 269 270 272 274 276 277 279 281 280 278 278 279 279 281 283 284 287 290 293 294 295 295 295 294 291 291 287 286 287 286 286 285 283
263 263 262 264 265 263 263 262 262 263 264 266 268 271 273 275 276 276 278 279 276 274 275 276 278 281 284 286 288 291 293 294 296 295 295 291 289 290 288 286 286 287 287 286
263 264 266 266 266 265 265 265 263 264 265 266 267 270 271 272 273 274 275 276 275 273 272 275 278 281 283 286 287 289 291 292 295 295 295 292 292 291 288 286 287 288 288 287
262 264 266 267 268 267 268 267 267 267 267 266 267 269 270 270 270 271 272 273 273 273 273 276 277 279 279 282 286 287 288 289 292 294 296 296 294 293 290 287 287 286 286 286
261 264 266 268 268 268 268 269 269 269 269 269 268 269 268 269 269 269 271 269 269 270 273 275 277 278 280 281 283 286 287 289 290 292 293 295 295 296 294 292 291 287 285 287
261 263 265 267 269 268 269 270 270 270 270 271 270 269 269 269 269 268 269 268 267 268 271 274 276 278 280 282 282 283 285 287 288 289 291 292 293 295 294 294 293 291 287 288
261 263 264 265 268 268 270 272 272 272 271 271 271 270 269 268 267 267 268 266 266 267 270 272 274 277 279 280 281 283 284 286 287 289 290 289 291 293 293 293 293 292 292 291
261 263 264 267 268 269 270 272 273 274 273 272 271 269 268 266 266 266 266 266 265 265 268 270 272 274 277 279 281 283 285 285 286 288 289 289 288 290 291 290 291 292 292 291
261 263 264 266 267 269 270 272 273 272 272 271 271 270 268 266 266 265 266 267 267 267 266 268 270 271 275 278 280 283 284 286 288 288 289 289 289 287 287 289 291 292 292 292
261 263 266 267 269 270 271 272 271 270 269 270 271 270 269 268 267 267 267 266 266 266 266 267 268 270 273 276 279 282 285 287 288 289 289 290 290 288 287 288 289 290 291 291
261 263 266 268 269 270 271 273 273 273 273 272 271 271 271 270 268 268 267 266 266 266 267 266 267 269 271 275 278 281 284 286 288 289 291 292 292 291 290 291 291 291 292 291
261 263 265 266 267 267 269 270 271 272 274 274 273 272 272 272 271 270 267 266 265 265 264 265 266 267 270 273 277 281 284 286 287 288 290 291 292 291 290 292 293 293 293 292
260 263 265 267 266 267 269 270 271 272 273 274 272 272 272 271 271 271 268 266 267 265 265 266 266 267 270 272 275 278 281 283 285 285 287 290 292 292 292 291 291 292 293 295
262 264 266 266 267 268 268 269 269 270 271 272 271 271 271 271 270 269 269 268 266 266 266 267 266 268 270 271 273 277 280 281 282 282 283 286 289 292 293 292 292 292 293 292
264 264 264 265 267 269 269 269 270 270 270 271 270 270 270 269 268 268 268 267 267 266 265 265 264 266 267 269 272 275 276 278 279 278 279 282 288 291 294 295 293 294 294 293
264 266 266 266 266 268 268 269 271 272 272 270 268 268 268 267 265 264 264 266 268 268 264 262 262 264 268 268 270 273 275 277 277 276 277 281 286 290 293 295 295 294 293 292
266 267 267 266 266 267 267 269 271 271 269 268 267 266 267 267 267 265 264 266 268 268 267 264 264 265 267 269 270 271 273 276 276 276 278 282 286 289 292 294 293 291 291 292
265 266 266 265 266 266 266 267 269 272 272 269 266 265 266 267 267 266 266 267 267 268 266 265 265 264 265 266 267 268 270 272 274 275 277 280 282 287 290 291 292 291 290 292
263 263 264 264 265 267 268 266 265 267 269 268 267 265 266 266 265 266 266 266 268 268 267 267 265 263 263 264 266 267 268 268 271 273 275 279 282 286 289 290 291 291 292 294
264 262 263 263 265 266 266 264 263 264 267 267 266 267 266 266 267 269 269 269 269 271 272 271 268 266 266 265 265 265 266 268 270 272 277 281 284 286 286 287 288 290 292 291
264 264 264 265 265 266 265 264 264 264 263 262 263 264 265 266 269 269 268 270 271 272 272 272 269 268 267 264 263 265 267 269 272 275 278 280 283 284 285 286 287 289 291 291
265 266 267 268 266 265 264 262 263 263 264 263 264 266 267 268 269 270 271 272 271 271 270 269 269 270 268 265 266 269 270 271 272 274 276 279 280 281 283 285 286 289 290 288
266 265 266 267 263 262 262 261 261 261 262 264 266 268 269 270 272 273 274 273 271 271 272 270 267 267 266 266 269 271 271 272 272 274 275 278 280 282 283 283 284 286 287 286
265 265 266 267 264 261 259 260 261 262 264 265 268 269 271 271 273 273 273 274 273 270 269 268 266 265 267 270 271 273 275 274 273 275 278 280 281 282 282 283 284 286 285 284
268 266 267 267 264 264 263 264 266 267 267 268 271 272 273 275 277 275 274 273 273 271 267 265 266 268 270 271 272 276 279 278 275 275 279 281 281 281 280 281 282 284 284 284
Height
5859 5860 5860 5860 5861 5861 5861 5862 5863 5863 5862 5862 5861 5860 5860 5859 5858 5857 5856 5855 5854 5853 5852 5850 5849 5848 5846 5844 5843 5841 5839 5837 5834 5832 5829 5827 5825 5823 5821 5819 5818 5816 5814 5812
5852 5852 5852 5853 5853 5854 5854 5855 5855 5855 5855 5855 5854 5854 5853 5853 5852 5851 5850 5849 5848 5847 5846 5845 5843 5842 5840 5839 5837 5835 5833 5831 5829 5826 5823 5821 5819 5817 5815 5813 5811 5809 5808 5806
5845 5845 5845 5845 5846 5846 5847 5847 5848 5847 5848 5847 5847 5847 5846 5846 5845 5845 5844 5842 5842 5841 5840 5839 5837 5836 5834 5833 5831 5830 5827 5825 5823 5820 5818 5815 5813 5811 5809 5807 5805 5803 5801 5799
5837 5838 5837 5840 5839 5839 5839 5839 5839 5839 5839 5839 5839 5839 5839 5838 5838 5837 5837 5836 5835 5834 5833 5832 5831 5830 5828 5827 5825 5823 5821 5819 5817 5814 5811 5809 5807 5805 5802 5800 5799 5797 5795 5793
5829 5829 5829 5831 5831 5831 5830 5830 5831 5831 5831 5831 5831 5831 5830 5830 5830 5829 5829 5828 5827 5827 5826 5825 5824 5823 5822 5820 5819 5817 5815 5813 5810 5808 5805 5803 5801 5798 5796 5794 5792 5790 5788 5786
5821 5821 5822 5824 5823 5822 5823 5822 5823 5822 5822 5823 5823 5823 5823 5822 5821 5821 5821 5820 5820 5819 5819 5818 5817 5816 5815 5814 5812 5810 5808 5806 5804 5801 5799 5797 5794 5792 5789 5787 5785 5783 5781 5779
5812 5812 5814 5815 5814 5814 5816 5815 5814 5814 5813 5814 5814 5814 5814 5813 5813 5812 5812 5812 5812 5812 5811 5811 5810 5809 5808 5807 5805 5803 5801 5799 5797 5795 5793 5790 5788 5785 5783 5780 5778 5776 5774 5773
5804 5805 5807 5806 5805 5806 5806 5805 5805 5805 5805 5804 5804 5804 5804 5804 5804 5804 5804 5804 5803 5804 5804 5803 5802 5801 5800 5799 5798 5796 5794 5792 5790 5788 5786 5784 5781 5779 5776 5773 5771 5769 5767 5766
5797 5798 5797 5796 5796 5796 5796 5796 5796 5796 5796 5795 5795 5795 5795 5795 5794 5795 5795 5795 5795 5795 5795 5795 5794 5793 5792 5791 5790 5788 5786 5785 5783 5781 5779 5776 5774 5772 5769 5767 5765 5763 5761 5759
5787 5787 5788 5788 5788 5788 5788 5788 5787 5787 5787 5786 5785 5785 5785 5785 5785 5785 5786 5786 5786 5786 5786 5786 5785 5785 5784 5783 5782 5780 5779 5778 5776 5774 5771 5769 5767 5765 5763 5761 5758 5756 5755 5753
5778 5779 5779 5779 5779 5779 5779 5779 5778 5778 5778 5777 5777 5776 5776 5776 5776 5776 5777 5777 5777 5777 5777 5777 5777 5776 5776 5775 5774 5773 5771 5770 5768 5766 5764 5762 5760 5758 5756 5754 5752 5750 5748 5746
5770 5770 5771 5771 5771 5771 5771 5770 5770 5770 5769 5769 5768 5767 5767 5767 5767 5767 5767 5768 5768 5768 5768 5768 5768 5768 5767 5767 5766 5764 5763 5762 5760 5759 5757 5755 5752 5750 5748 5747 5745 5743 5741 5739
5761 5761 5762 5762 5762 5762 5762 5762 5761 5761 5760 5760 5759 5758 5758 5758 5758 5758 5758 5758 5759 5759 5759 5759 5759 5759 5759 5758 5757 5756 5756 5754 5753 5751 5750 5748 5745 5743 5742 5740 5739 5737 5735 5733
5752 5752 5753 5753 5754 5754 5753 5753 5753 5752 5752 5751 5751 5750 5749 5749 5749 5749 5749 5749 5749 5749 5750 5750 5751 5751 5751 5750 5749 5749 5748 5747 5745 5744 5742 5741 5738 5736 5735 5733 5732 5730 5728 5727
5743 5743 5744 5744 5745 5745 5745 5745 5744 5744 5743 5743 5742 5741 5741 5740 5740 5740 5740 5740 5740 5740 5740 5741 5742 5742 5742 5742 5741 5741 5740 5739 5738 5737 5735 5734 5732 5730 5728 5727 5725 5724 5722 5720
5734 5735 5735 5735 5736 5736 5736 5736 5736 5735 5735 5734 5733 5733 5732 5731 5731 5731 5731 5731 5731 5731 5731 5732 5733 5734 5733 5733 5733 5732 5732 5731 5730 5729 5728 5727 5725 5724 5722 5721 5719 5717 5715 5714
5725 5726 5726 5727 5727 5727 5727 5727 5727 5726 5726 5725 5724 5723 5723 5722 5722 5722 5722 5722 5722 5722 5723 5723 5724 5725 5725 5724 5724 5724 5723 5723 5722 5721 5720 5720 5719 5718 5716 5714 5713 5711 5709 5708
5717 5717 5718 5718 5718 5719 5719 5718 5718 5718 5717 5716 5715 5715 5714 5714 5713 5713 5713 5713 5714 5714 5714 5715 5715 5716 5716 5716 5716 5716 5715 5715 5714 5714 5713 5713 5712 5711 5710 5708 5707 5705 5703 5701
5709 5709 5709 5710 5710 5710 5710 5710 5710 5709 5709 5708 5708 5707 5707 5707 5706 5706 5706 5706 5706 5706 5706 5706 5707 5707 5708 5708 5708 5708 5707 5707 5706 5706 5706 5706 5705 5705 5703 5702 5701 5699 5697 5695
5701 5701 5701 5702 5702 5702 5702 5702 5702 5702 5701 5701 5701 5700 5700 5700 5699 5699 5699 5699 5699 5699 5699 5698 5698 5699 5700 5700 5700 5700 5700 5700 5700 5700 5700 5699 5699 5698 5697 5695 5694 5692 5690 5689
5694 5694 5694 5694 5694 5695 5694 5694 5694 5694 5694 5694 5694 5694 5693 5693 5693 5693 5692 5692 5692 5692 5691 5691 5691 5691 5691 5692 5692 5693 5693 5693 5693 5693 5693 5693 5692 5691 5690 5689 5688 5686 5684 5682
5687 5687 5687 5687 5688 5688 5687 5687 5687 5687 5687 5687 5687 5687 5687 5687 5686 5686 5685 5685 5685 5685 5684 5684 5684 5684 5684 5684 5685 5686 5686 5686 5687 5687 5687 5687 5686 5685 5684 5683 5681 5680 5678 5676
5681 5681 5681 5681 5681 5681 5681 5681 5681 5681 5681 5681 5681 5681 5681 5681 5680 5680 5679 5679 5678 5678 5678 5678 5678 5678 5678 5678 5679 5679 5680 5680 5681 5680 5680 5680 5680 5679 5677 5676 5675 5673 5671 5669
5676 5676 5676 5676 5676 5676 5676 5676 5676 5675 5675 5675 5675 5675 5675 5675 5674 5674 5673 5673 5672 5672 5672 5673 5673 5673 5673 5673 5674 5674 5674 5674 5674 5674 5674 5674 5673 5672 5671 5670 5668 5666 5665 5663
5671 5671 5671 5671 5671 5671 5671 5671 5671 5671 5670 5670 5670 5670 5670 5669 5669 5669 5668 5668 5667 5667 5667 5668 5668 5668 5668 5668 5669 5669 5669 5668 5668 5668 5668 5667 5666 5665 5664 5663 5661 5660 5658 5657
5666 5666 5667 5666 5666 5666 5666 5666 5666 5666 5666 5666 5666 5665 5665 5664 5664 5663 5663 5663 5663 5663 5663 5663 5663 5663 5663 5664 5663 5663 5663 5662 5662 5662 5662 5661 5660 5659 5657 5656 5654 5653 5651 5650
5662 5662 5662 5662 5662 5662 5662 5662 5662 5662 5662 5661 5661 5661 5660 5660 5659 5659 5658 5658 5658 5657 5657 5658 5658 5658 5658 5658 5658 5657 5657 5656 5656 5656 5655 5654 5653 5652 5650 5649 5648 5646 5645 5644